Change the Weather History Date:

Sunday, October 30, 2011

  Actual Average Record
Temperature  
Mean Temperature 40 °F 37 °F  
Max Temperature 44 °F 43 °F 51 °F (2003)
Min Temperature 35 °F 31 °F 16 °F (1981)
Degree Days  
Heating Degree Days 25 28  
Month to date heating degree days 679 732  
Since 1 July heating degree days 1771 1830  
Cooling Degree Days 0    
Month to date cooling degree days 0  
Year to date cooling degree days 0  
Moisture  
Dew Point 22 °F    
Average Humidity 0    
Maximum Humidity 0    
Minimum Humidity 0    
Precipitation  
Precipitation T in 0.24 in 2.21 in (1995)
Month to date precipitation 5.16 8.01  
Year to date precipitation 60.03 62.15  
Snow  
Snow T in 0.10 in 10.00 in (1970)
Month to date snowfall T 1.0  
Since 1 July snowfall T 1.0  
Since 1 September snowfall 0.0 1.0  
Snow Depth 0.00 in    
Sea Level Pressure  
Sea Level Pressure 29.62 in    
Wind  
Wind Speed 17 mph (WSW)    
Max Wind Speed 32 mph    
Max Gust Speed 43 mph    
Visibility 10 miles    
Events Rain , Snow    
T = Trace of Precipitation, MM = Missing Value Source: NWS Daily Summary

Daily Weather History Graph

Daily Weather History Graph

Search for Another Location

Airport or City:

Trip Planner

Search our weather history database for the weather conditions in past years. The results will help you decide how hot, cold, wet, or windy it might be!

Date:

Astronomy

Oct. 30, 2011 Rise Set
Actual Time 9:18 AM AKDT 6:27 PM AKDT
Civil Twilight 8:36 AM AKDT 7:09 PM AKDT
Nautical Twilight 7:50 AM AKDT 7:55 PM AKDT
Astronomical Twilight 7:05 AM AKDT 8:40 PM AKDT
Moon 2:27 PM AKDT (10/30) 9:29 PM AKDT (10/30)
Length of Visible Light 10h 32m
Length of Day
9h 09m
Waxing Crescent, 21% of the Moon is Illuminated
Oct 30
Waxing Crescent
Nov 2
First Quarter
Nov 10
Full
Nov 18
Last Quarter
Nov 24
New

Hourly Weather History & Observations

Time (AKDT) Temp. Windchill Dew Point Humidity Pressure Visibility Wind Dir Wind Speed Gust Speed Precip Events Conditions
12:53 AM 37.9 °F 26.6 °F 25.0 °F 60% 29.34 in 10.0 mi West 25.3 mph 36.8 mph N/A   Scattered Clouds
1:53 AM 37.0 °F 25.9 °F 23.0 °F 57% 29.39 in 10.0 mi West 23.0 mph 36.8 mph N/A   Clear
2:53 AM 36.0 °F 23.7 °F 19.9 °F 52% 29.44 in 10.0 mi West 26.5 mph 36.8 mph N/A   Clear
3:53 AM 37.0 °F 26.7 °F 17.1 °F 44% 29.49 in 10.0 mi West 19.6 mph 36.8 mph N/A   Clear
4:53 AM 37.9 °F 27.9 °F 14.0 °F 38% 29.52 in 10.0 mi WNW 19.6 mph 33.4 mph N/A   Clear
5:53 AM 37.9 °F 30.5 °F 15.1 °F 39% 29.55 in 10.0 mi West 11.5 mph 18.4 mph N/A   Clear
6:53 AM 39.0 °F 29.6 °F 18.0 °F 43% 29.56 in 10.0 mi West 18.4 mph 31.1 mph N/A   Clear
7:53 AM 39.0 °F 31.4 °F 23.0 °F 53% 29.58 in 10.0 mi West 12.7 mph 19.6 mph N/A   Partly Cloudy
8:53 AM 39.0 °F 31.4 °F 24.1 °F 55% 29.61 in 10.0 mi WSW 12.7 mph 20.7 mph N/A   Partly Cloudy
9:53 AM 36.0 °F 27.1 °F 30.0 °F 79% 29.63 in 7.0 mi SW 13.8 mph - 0.00 in Rain , Snow Light Rain
10:53 AM 41.0 °F 32.5 °F 27.0 °F 57% 29.64 in 10.0 mi WSW 17.3 mph 27.6 mph 0.00 in   Partly Cloudy
11:53 AM 42.1 °F 33.9 °F 23.0 °F 47% 29.65 in 10.0 mi WSW 17.3 mph 29.9 mph N/A   Partly Cloudy
12:53 PM 42.1 °F 33.9 °F 19.9 °F 41% 29.68 in 10.0 mi West 17.3 mph 26.5 mph N/A   Partly Cloudy
1:53 PM 43.0 °F 34.5 °F 19.0 °F 38% 29.69 in 10.0 mi WSW 19.6 mph 32.2 mph N/A   Partly Cloudy
2:53 PM 44.1 °F 38.1 °F 17.1 °F 34% 29.70 in 10.0 mi West 11.5 mph 18.4 mph N/A   Clear
3:53 PM 43.0 °F 37.7 °F 19.9 °F 40% 29.71 in 10.0 mi SW 9.2 mph 23.0 mph N/A   Clear
4:53 PM 44.1 °F - 19.9 °F 38% 29.73 in 10.0 mi Calm Calm - N/A   Scattered Clouds
5:53 PM 39.9 °F 33.9 °F 19.9 °F 45% 29.73 in 10.0 mi WSW 9.2 mph - N/A   Scattered Clouds
6:53 PM 37.9 °F 32.7 °F 21.9 °F 53% 29.73 in 10.0 mi WSW 6.9 mph - N/A   Scattered Clouds
7:53 PM 37.0 °F 31.0 °F 23.0 °F 57% 29.75 in 10.0 mi SSW 8.1 mph - N/A   Scattered Clouds
8:53 PM 34.0 °F - 25.0 °F 70% 29.74 in 10.0 mi Calm Calm - N/A   Mostly Cloudy
9:53 PM 37.0 °F 34.5 °F 26.1 °F 65% 29.72 in 9.0 mi South 3.5 mph - 0.00 in   Overcast
10:53 PM 37.9 °F - 26.1 °F 62% 29.70 in 10.0 mi Calm Calm - N/A   Overcast
11:53 PM 37.9 °F 35.5 °F 30.0 °F 73% 29.67 in 10.0 mi SW 3.5 mph - 0.00 in Rain Light Rain